| time (UTC) | temp C | wind direction | speed KPH | gust KPH | rain 1hr cm | rain 24hr cm | rain mn cm | humidity % | barometer mb |
| 20260906210503 | 35 | 202 | 9.7 | 22.5 | 0.00 | 0.00 | 0.00 | 31 | 1012.1 |
| 20260906210003 | 35 | 199 | 9.7 | 24.1 | 0.00 | 0.00 | 0.00 | 30 | 1012.2 |
| 20260906205504 | 35 | 203 | 9.7 | 24.1 | 0.00 | 0.00 | 0.00 | 31 | 1012.2 |
| 20260906205003 | 34 | 202 | 9.7 | 16.1 | 0.00 | 0.00 | 0.00 | 32 | 1012.3 |
| 20260906204503 | 34 | 210 | 11.3 | 19.3 | 0.00 | 0.00 | 0.00 | 31 | 1012.6 |
| 20260906204004 | 34 | 215 | 11.3 | 19.3 | 0.00 | 0.00 | 0.00 | 32 | 1012.7 |
| 20260906203504 | 33 | 211 | 11.3 | 19.3 | 0.00 | 0.00 | 0.00 | 33 | 1012.8 |
| 20260906203215 | 33 | 210 | 11.3 | 24.1 | 0.00 | 0.00 | 0.00 | 34 | 1012.9 |
| 20260906202504 | 33 | 198 | 9.7 | 24.1 | 0.00 | 0.00 | 0.00 | 33 | 1013.0 |
| 20260906202004 | 33 | 197 | 8.0 | 20.9 | 0.00 | 0.00 | 0.00 | 32 | 1013.2 |
| 20260906201714 | 33 | 201 | 9.7 | 20.9 | 0.00 | 0.00 | 0.00 | 32 | 1013.2 |
| 20260906201004 | 33 | 200 | 8.0 | 16.1 | 0.00 | 0.00 | 0.00 | 34 | 1013.2 |
| 20260906200504 | 33 | 201 | 8.0 | 19.3 | 0.00 | 0.00 | 0.00 | 33 | 1013.2 |
| 20260906200004 | 32 | 196 | 6.4 | 19.3 | 0.00 | 0.00 | 0.00 | 35 | 1013.3 |
| 20260906195504 | 32 | 190 | 8.0 | 19.3 | 0.00 | 0.00 | 0.00 | 36 | 1013.4 |
| 20260906195004 | 32 | 204 | 8.0 | 19.3 | 0.00 | 0.00 | 0.00 | 37 | 1013.4 |
| 20260906194503 | 32 | 209 | 6.4 | 16.1 | 0.00 | 0.00 | 0.00 | 37 | 1013.5 |
| 20260906194004 | 32 | 194 | 6.4 | 14.5 | 0.00 | 0.00 | 0.00 | 36 | 1013.6 |
| 20260906193503 | 32 | 194 | 6.4 | 14.5 | 0.00 | 0.00 | 0.00 | 36 | 1013.7 |
| 20260906193003 | 32 | 187 | 6.4 | 14.5 | 0.00 | 0.00 | 0.00 | 37 | 1013.8 |
| 20260906192713 | 32 | 185 | 6.4 | 14.5 | 0.00 | 0.00 | 0.00 | 37 | 1013.8 |
| 20260906192003 | 31 | 198 | 6.4 | 14.5 | 0.00 | 0.00 | 0.00 | 37 | 1013.9 |
| 20260906191503 | 31 | 195 | 8.0 | 14.5 | 0.00 | 0.00 | 0.00 | 36 | 1013.9 |
| 20260906191003 | 31 | 191 | 4.8 | 14.5 | 0.00 | 0.00 | 0.00 | 35 | 1014.0 |
| 20260906190504 | 31 | 166 | 4.8 | 17.7 | 0.00 | 0.00 | 0.00 | 38 | 1014.1 |
| 20260906190004 | 31 | 139 | 6.4 | 17.7 | 0.00 | 0.00 | 0.00 | 38 | 1014.1 |
| 20260906185504 | 31 | 158 | 4.8 | 11.3 | 0.00 | 0.00 | 0.00 | 38 | 1014.3 |
| 20260906185214 | 31 | 163 | 4.8 | 9.7 | 0.00 | 0.00 | 0.00 | 38 | 1014.2 |
| 20260906184504 | 31 | 174 | 4.8 | 9.7 | 0.00 | 0.00 | 0.00 | 38 | 1014.3 |
| 20260906184003 | 30 | 156 | 4.8 | 9.7 | 0.00 | 0.00 | 0.00 | 39 | 1014.3 |
| 20260906183503 | 30 | 117 | 3.2 | 9.7 | 0.00 | 0.00 | 0.00 | 42 | 1014.5 |
| 20260906183004 | 30 | 103 | 3.2 | 9.7 | 0.00 | 0.00 | 0.00 | 43 | 1014.6 |
| 20260906182714 | 30 | 98 | 4.8 | 9.7 | 0.00 | 0.00 | 0.00 | 42 | 1014.7 |
| 20260906182003 | 30 | 99 | 4.8 | 9.7 | 0.00 | 0.00 | 0.00 | 40 | 1014.8 |
| 20260906181504 | 29 | 105 | 3.2 | 8.0 | 0.00 | 0.00 | 0.00 | 43 | 1014.7 |
| 20260906181003 | 29 | 103 | 4.8 | 9.7 | 0.00 | 0.00 | 0.00 | 41 | 1014.8 |
| 20260906180503 | 29 | 94 | 4.8 | 11.3 | 0.00 | 0.00 | 0.00 | 42 | 1014.9 |
| 20260906180004 | 29 | 102 | 4.8 | 11.3 | 0.00 | 0.00 | 0.00 | 42 | 1015.0 |
| 20260906175503 | 29 | 108 | 3.2 | 9.7 | 0.00 | 0.00 | 0.00 | 43 | 1015.0 |
| 20260906175004 | 29 | 116 | 3.2 | 9.7 | 0.00 | 0.00 | 0.00 | 43 | 1015.0 |
| 20260906174503 | 29 | 193 | 1.6 | 9.7 | 0.00 | 0.00 | 0.00 | 44 | 1015.1 |
| 20260906174004 | 28 | 141 | 1.6 | 9.7 | 0.00 | 0.00 | 0.00 | 45 | 1015.3 |
| 20260906173503 | 28 | 110 | 1.6 | 9.7 | 0.00 | 0.00 | 0.00 | 47 | 1015.4 |
| 20260906173217 | 27 | 102 | 3.2 | 8.0 | 0.00 | 0.00 | 0.00 | 47 | 1015.4 |
| 20260906172504 | 27 | 84 | 4.8 | 9.7 | 0.00 | 0.00 | 0.00 | 47 | 1015.6 |
| 20260906172003 | 27 | 78 | 3.2 | 9.7 | 0.00 | 0.00 | 0.00 | 46 | 1015.6 |
| 20260906171503 | 27 | 85 | 1.6 | 8.0 | 0.00 | 0.00 | 0.00 | 47 | 1015.7 |
| 20260906171004 | 27 | 64 | 3.2 | 11.3 | 0.00 | 0.00 | 0.00 | 50 | 1015.6 |
| 20260906170503 | 26 | 53 | 3.2 | 11.3 | 0.00 | 0.00 | 0.00 | 50 | 1015.6 |
| 20260906170003 | 26 | 69 | 3.2 | 9.7 | 0.00 | 0.00 | 0.00 | 51 | 1015.7 |
| 20260906165504 | 26 | 88 | 4.8 | 9.7 | 0.00 | 0.00 | 0.00 | 51 | 1015.7 |
| 20260906165003 | 26 | 95 | 4.8 | 11.3 | 0.00 | 0.00 | 0.00 | 51 | 1015.6 |
| 20260906164504 | 26 | 93 | 4.8 | 11.3 | 0.00 | 0.00 | 0.00 | 53 | 1015.7 |
| 20260906164004 | 26 | 100 | 3.2 | 9.7 | 0.00 | 0.00 | 0.00 | 53 | 1015.6 |
| 20260906163503 | 26 | 138 | 1.6 | 6.4 | 0.00 | 0.00 | 0.00 | 52 | 1015.6 |
| 20260906163004 | 26 | 116 | 1.6 | 6.4 | 0.00 | 0.00 | 0.00 | 53 | 1015.7 |
| 20260906162503 | 26 | 91 | 1.6 | 4.8 | 0.00 | 0.00 | 0.00 | 53 | 1015.8 |
| 20260906162004 | 25 | 96 | 3.2 | 6.4 | 0.00 | 0.00 | 0.00 | 53 | 1015.7 |
| 20260906161503 | 25 | 102 | 1.6 | 6.4 | 0.00 | 0.00 | 0.00 | 53 | 1015.6 |
| 20260906161003 | 25 | 106 | 1.6 | 6.4 | 0.00 | 0.00 | 0.00 | 55 | 1015.6 |
| 20260906160503 | 25 | 138 | 1.6 | 6.4 | 0.00 | 0.00 | 0.00 | 54 | 1015.6 |
| 20260906160004 | 25 | 158 | 1.6 | 4.8 | 0.00 | 0.00 | 0.00 | 55 | 1015.6 |
| 20260906155503 | 24 | 128 | 1.6 | 6.4 | 0.00 | 0.00 | 0.00 | 56 | 1015.5 |
| 20260906155003 | 24 | 182 | 3.2 | 9.7 | 0.00 | 0.00 | 0.00 | 56 | 1015.6 |
| 20260906154504 | 25 | 206 | 4.8 | 9.7 | 0.00 | 0.00 | 0.00 | 56 | 1015.4 |
| 20260906154003 | 24 | 213 | 3.2 | 9.7 | 0.00 | 0.00 | 0.00 | 56 | 1015.4 |
| 20260906153504 | 25 | 202 | 1.6 | 9.7 | 0.00 | 0.00 | 0.00 | 55 | 1015.7 |
| 20260906153004 | 24 | 188 | 1.6 | 6.4 | 0.00 | 0.00 | 0.00 | 57 | 1015.7 |
| 20260906152716 | 24 | 165 | 1.6 | 6.4 | 0.00 | 0.00 | 0.00 | 57 | 1015.7 |
| 20260906152004 | 23 | 99 | 3.2 | 8.0 | 0.00 | 0.00 | 0.00 | 59 | 1015.6 |
| 20260906151717 | 23 | 99 | 1.6 | 8.0 | 0.00 | 0.00 | 0.00 | 59 | 1015.6 |
| 20260906151003 | 23 | 77 | 1.6 | 6.4 | 0.00 | 0.00 | 0.00 | 60 | 1015.5 |
| 20260906150504 | 23 | 89 | 3.2 | 6.4 | 0.00 | 0.00 | 0.00 | 58 | 1015.4 |
| 20260906150004 | 23 | 150 | 1.6 | 4.8 | 0.00 | 0.00 | 0.00 | 58 | 1015.4 |
| 20260906145504 | 23 | 195 | 1.6 | 4.8 | 0.00 | 0.00 | 0.00 | 58 | 1015.4 |
| 20260906145217 | 23 | 243 | 1.6 | 4.8 | 0.00 | 0.00 | 0.00 | 58 | 1015.5 |
| 20260906144503 | 23 | 219 | 1.6 | 4.8 | 0.00 | 0.00 | 0.00 | 59 | 1015.5 |
| 20260906144004 | 23 | 209 | 1.6 | 4.8 | 0.00 | 0.00 | 0.00 | 60 | 1015.6 |
| 20260906143715 | 22 | 229 | 1.6 | 4.8 | 0.00 | 0.00 | 0.00 | 60 | 1015.6 |
| 20260906143004 | 22 | 237 | 3.2 | 8.0 | 0.00 | 0.00 | 0.00 | 62 | 1015.4 |
| 20260906142503 | 22 | 237 | 3.2 | 9.7 | 0.00 | 0.00 | 0.00 | 63 | 1015.4 |
| 20260906142214 | 22 | 235 | 4.8 | 9.7 | 0.00 | 0.00 | 0.00 | 62 | 1015.4 |
| 20260906141712 | 22 | 216 | 3.2 | 9.7 | 0.00 | 0.00 | 0.00 | 63 | 1015.4 |
| 20260906141004 | 21 | 227 | 3.2 | 6.4 | 0.00 | 0.00 | 0.00 | 64 | 1015.4 |
| 20260906140503 | 21 | 257 | 3.2 | 6.4 | 0.00 | 0.00 | 0.00 | 64 | 1015.4 |
| 20260906140216 | 21 | 253 | 1.6 | 6.4 | 0.00 | 0.00 | 0.00 | 64 | 1015.4 |
| 20260906135504 | 21 | 154 | 0.0 | 3.2 | 0.00 | 0.00 | 0.00 | 67 | 1015.5 |
| 20260906135217 | 21 | 124 | 0.0 | 3.2 | 0.00 | 0.00 | 0.00 | 70 | 1015.4 |
| 20260906134503 | 20 | 123 | 1.6 | 4.8 | 0.00 | 0.00 | 0.00 | 74 | 1015.4 |
| 20260906134004 | 20 | 112 | 1.6 | 3.2 | 0.00 | 0.00 | 0.00 | 75 | 1015.4 |
| 20260906133503 | 20 | 112 | 0.0 | 3.2 | 0.00 | 0.00 | 0.00 | 77 | 1015.2 |
| 20260906133003 | 19 | 117 | 0.0 | 1.6 | 0.00 | 0.00 | 0.00 | 77 | 1015.3 |
| 20260906132717 | 19 | 0 | 0.0 | 0.0 | 0.00 | 0.00 | 0.00 | 78 | 1015.3 |
| 20260906132003 | 18 | 0 | 0.0 | 0.0 | 0.00 | 0.00 | 0.00 | 79 | 1015.2 |
| 20260906131504 | 18 | 0 | 0.0 | 0.0 | 0.00 | 0.00 | 0.00 | 82 | 1015.0 |
| 20260906131004 | 17 | 0 | 0.0 | 0.0 | 0.00 | 0.00 | 0.00 | 83 | 1014.8 |
| 20260906130714 | 17 | 0 | 0.0 | 0.0 | 0.00 | 0.00 | 0.00 | 84 | 1014.8 |
| 20260906130217 | 16 | 203 | 0.0 | 1.6 | 0.00 | 0.00 | 0.00 | 86 | 1014.8 |
| 20260906125503 | 16 | 204 | 0.0 | 1.6 | 0.00 | 0.00 | 0.00 | 83 | 1014.9 |
| 20260906125003 | 16 | 203 | 1.6 | 3.2 | 0.00 | 0.00 | 0.00 | 81 | 1014.6 |
| 20260906124504 | 16 | 204 | 1.6 | 4.8 | 0.00 | 0.00 | 0.00 | 82 | 1014.6 |
| 20260906124003 | 17 | 203 | 1.6 | 4.8 | 0.00 | 0.00 | 0.00 | 82 | 1014.5 |
| 20260906123503 | 17 | 135 | 0.0 | 1.6 | 0.00 | 0.00 | 0.00 | 83 | 1014.5 |
| 20260906123004 | 17 | 132 | 0.0 | 1.6 | 0.00 | 0.00 | 0.00 | 83 | 1014.3 |
| 20260906122503 | 17 | 134 | 0.0 | 1.6 | 0.00 | 0.00 | 0.00 | 83 | 1014.3 |
| 20260906122003 | 17 | 134 | 0.0 | 1.6 | 0.00 | 0.00 | 0.00 | 81 | 1014.3 |
| 20260906121714 | 17 | 128 | 0.0 | 1.6 | 0.00 | 0.00 | 0.00 | 83 | 1014.3 |
| 20260906121004 | 17 | 111 | 0.0 | 1.6 | 0.00 | 0.00 | 0.00 | 81 | 1014.2 |
| 20260906120504 | 17 | 110 | 0.0 | 3.2 | 0.00 | 0.00 | 0.00 | 83 | 1014.3 |
| 20260906120212 | 17 | 110 | 0.0 | 3.2 | 0.00 | 0.00 | 0.00 | 82 | 1014.2 |
| 20260906115503 | 17 | 139 | 0.0 | 3.2 | 0.00 | 0.00 | 0.00 | 81 | 1014.2 |
| 20260906115213 | 17 | 174 | 0.0 | 3.2 | 0.00 | 0.00 | 0.00 | 82 | 1014.1 |
| 20260906114503 | 17 | 218 | 0.0 | 3.2 | 0.00 | 0.00 | 0.00 | 83 | 1014.2 |
| 20260906114004 | 17 | 221 | 0.0 | 3.2 | 0.00 | 0.00 | 0.00 | 81 | 1014.0 |
| 20260906113503 | 17 | 146 | 1.6 | 3.2 | 0.00 | 0.00 | 0.00 | 80 | 1014.0 |
| 20260906113003 | 17 | 127 | 1.6 | 6.4 | 0.00 | 0.00 | 0.00 | 83 | 1013.9 |
| 20260906112504 | 17 | 129 | 1.6 | 6.4 | 0.00 | 0.00 | 0.00 | 85 | 1013.8 |
| 20260906112003 | 17 | 0 | 0.0 | 0.0 | 0.00 | 0.00 | 0.00 | 82 | 1014.0 |
| 20260906111503 | 17 | 0 | 0.0 | 0.0 | 0.00 | 0.00 | 0.00 | 80 | 1013.9 |
| 20260906111004 | 17 | 306 | 0.0 | 1.6 | 0.00 | 0.00 | 0.00 | 81 | 1014.0 |
| 20260906110503 | 17 | 306 | 0.0 | 1.6 | 0.00 | 0.00 | 0.00 | 81 | 1013.9 |
| 20260906110003 | 17 | 306 | 0.0 | 1.6 | 0.00 | 0.00 | 0.00 | 85 | 1013.9 |
| 20260906105504 | 16 | 0 | 0.0 | 0.0 | 0.00 | 0.00 | 0.00 | 81 | 1014.1 |
| 20260906105003 | 17 | 0 | 0.0 | 0.0 | 0.00 | 0.00 | 0.00 | 80 | 1014.0 |
| 20260906104504 | 17 | 0 | 0.0 | 0.0 | 0.00 | 0.00 | 0.00 | 82 | 1014.1 |
| 20260906104003 | 17 | 0 | 0.0 | 0.0 | 0.00 | 0.00 | 0.00 | 82 | 1013.9 |
| 20260906103503 | 17 | 0 | 0.0 | 0.0 | 0.00 | 0.00 | 0.00 | 82 | 1014.1 |
| 20260906103004 | 17 | 0 | 0.0 | 0.0 | 0.00 | 0.00 | 0.00 | 83 | 1014.1 |
| 20260906102714 | 17 | 307 | 0.0 | 1.6 | 0.00 | 0.00 | 0.00 | 83 | 1014.2 |
| 20260906102004 | 17 | 307 | 0.0 | 1.6 | 0.00 | 0.00 | 0.00 | 79 | 1014.1 |
| 20260906101503 | 17 | 0 | 0.0 | 0.0 | 0.00 | 0.00 | 0.00 | 81 | 1014.0 |
| 20260906101003 | 17 | 307 | 0.0 | 1.6 | 0.00 | 0.00 | 0.00 | 79 | 1013.9 |
| 20260906100504 | 17 | 307 | 0.0 | 3.2 | 0.00 | 0.00 | 0.00 | 78 | 1014.0 |
| 20260906100214 | 17 | 307 | 0.0 | 3.2 | 0.00 | 0.00 | 0.00 | 77 | 1014.1 |
| 20260906095503 | 18 | 0 | 0.0 | 0.0 | 0.00 | 0.00 | 0.00 | 73 | 1014.0 |
| 20260906095004 | 19 | 0 | 0.0 | 0.0 | 0.00 | 0.00 | 0.00 | 74 | 1014.2 |
| 20260906094504 | 20 | 0 | 0.0 | 0.0 | 0.00 | 0.00 | 0.00 | 72 | 1014.2 |
| 20260906094003 | 20 | 100 | 1.6 | 3.2 | 0.00 | 0.00 | 0.00 | 74 | 1014.1 |
| 20260906093504 | 20 | 99 | 1.6 | 3.2 | 0.00 | 0.00 | 0.00 | 74 | 1014.2 |
| 20260906093004 | 20 | 100 | 0.0 | 3.2 | 0.00 | 0.00 | 0.00 | 73 | 1014.1 |
| 20260906092503 | 20 | 104 | 0.0 | 1.6 | 0.00 | 0.00 | 0.00 | 72 | 1014.1 |
| 20260906092004 | 21 | 110 | 0.0 | 3.2 | 0.00 | 0.00 | 0.00 | 72 | 1014.1 |
| 20260906091503 | 21 | 113 | 1.6 | 3.2 | 0.00 | 0.00 | 0.00 | 72 | 1014.1 |
| 20260906091004 | 21 | 116 | 1.6 | 3.2 | 0.00 | 0.00 | 0.00 | 72 | 1014.1 |
| 20260906090503 | 21 | 125 | 1.6 | 3.2 | 0.00 | 0.00 | 0.00 | 71 | 1014.1 |
| 20260906090003 | 21 | 129 | 0.0 | 3.2 | 0.00 | 0.00 | 0.00 | 70 | 1014.2 |
| 20260906085504 | 21 | 125 | 0.0 | 3.2 | 0.00 | 0.00 | 0.00 | 69 | 1014.1 |
| 20260906085004 | 21 | 126 | 0.0 | 3.2 | 0.00 | 0.00 | 0.00 | 69 | 1014.0 |
| 20260906084503 | 21 | 0 | 0.0 | 0.0 | 0.00 | 0.00 | 0.00 | 68 | 1014.1 |
| 20260906084004 | 21 | 0 | 0.0 | 0.0 | 0.00 | 0.00 | 0.00 | 68 | 1014.2 |
| 20260906083504 | 21 | 0 | 0.0 | 0.0 | 0.00 | 0.00 | 0.00 | 68 | 1014.1 |
| 20260906083003 | 21 | 0 | 0.0 | 0.0 | 0.00 | 0.00 | 0.00 | 69 | 1014.3 |
| 20260906082504 | 21 | 0 | 0.0 | 0.0 | 0.00 | 0.00 | 0.00 | 69 | 1014.3 |
| 20260906082004 | 21 | 0 | 0.0 | 0.0 | 0.00 | 0.00 | 0.00 | 69 | 1014.4 |
| 20260906081716 | 21 | 0 | 0.0 | 0.0 | 0.00 | 0.00 | 0.00 | 70 | 1014.5 |
| 20260906081004 | 21 | 0 | 0.0 | 0.0 | 0.00 | 0.00 | 0.00 | 67 | 1014.4 |
| 20260906080504 | 21 | 0 | 0.0 | 0.0 | 0.00 | 0.00 | 0.00 | 66 | 1014.4 |
| 20260906080215 | 21 | 355 | 0.0 | 1.6 | 0.00 | 0.00 | 0.00 | 63 | 1014.3 |
| 20260906075504 | 22 | 355 | 0.0 | 1.6 | 0.00 | 0.00 | 0.00 | 64 | 1014.5 |
| 20260906075216 | 22 | 0 | 0.0 | 0.0 | 0.00 | 0.00 | 0.00 | 63 | 1014.5 |
| 20260906074504 | 22 | 355 | 0.0 | 1.6 | 0.00 | 0.00 | 0.00 | 64 | 1014.5 |
| 20260906074004 | 22 | 355 | 0.0 | 1.6 | 0.00 | 0.00 | 0.00 | 64 | 1014.4 |
| 20260906073503 | 22 | 355 | 0.0 | 1.6 | 0.00 | 0.00 | 0.00 | 64 | 1014.3 |
| 20260906073004 | 22 | 355 | 1.6 | 4.8 | 0.00 | 0.00 | 0.00 | 63 | 1014.3 |
| 20260906072716 | 22 | 4 | 3.2 | 4.8 | 0.00 | 0.00 | 0.00 | 62 | 1014.4 |
| 20260906072003 | 23 | 36 | 1.6 | 4.8 | 0.00 | 0.00 | 0.00 | 60 | 1014.4 |
| 20260906071503 | 23 | 114 | 0.0 | 6.4 | 0.00 | 0.00 | 0.00 | 60 | 1014.3 |
| 20260906071215 | 23 | 133 | 1.6 | 6.4 | 0.00 | 0.00 | 0.00 | 59 | 1014.4 |
| 20260906070503 | 23 | 187 | 1.6 | 6.4 | 0.00 | 0.00 | 0.00 | 57 | 1014.3 |
| 20260906070004 | 23 | 194 | 4.8 | 11.3 | 0.00 | 0.00 | 0.00 | 57 | 1014.2 |
| 20260906065504 | 23 | 193 | 6.4 | 11.3 | 0.00 | 0.00 | 0.00 | 57 | 1014.2 |
| 20260906065004 | 23 | 189 | 3.2 | 11.3 | 0.00 | 0.00 | 0.00 | 57 | 1014.1 |
| 20260906064504 | 23 | 145 | 1.6 | 4.8 | 0.00 | 0.00 | 0.00 | 58 | 1014.2 |
| 20260906064003 | 23 | 108 | 0.0 | 3.2 | 0.00 | 0.00 | 0.00 | 58 | 1014.1 |
| 20260906063716 | 23 | 140 | 0.0 | 3.2 | 0.00 | 0.00 | 0.00 | 58 | 1014.2 |
| 20260906063003 | 23 | 182 | 1.6 | 6.4 | 0.00 | 0.00 | 0.00 | 57 | 1014.3 |
| 20260906062503 | 23 | 199 | 1.6 | 6.4 | 0.00 | 0.00 | 0.00 | 56 | 1014.3 |
| 20260906062214 | 23 | 209 | 3.2 | 11.3 | 0.00 | 0.00 | 0.00 | 56 | 1014.1 |
| 20260906061503 | 23 | 210 | 3.2 | 11.3 | 0.00 | 0.00 | 0.00 | 57 | 1014.0 |
| 20260906061004 | 23 | 197 | 1.6 | 4.8 | 0.00 | 0.00 | 0.00 | 57 | 1014.0 |
| 20260906060504 | 23 | 198 | 1.6 | 4.8 | 0.00 | 0.00 | 0.00 | 57 | 1014.1 |
| 20260906060004 | 23 | 180 | 1.6 | 4.8 | 0.00 | 0.00 | 0.00 | 57 | 1014.1 |
| 20260906055503 | 23 | 133 | 0.0 | 3.2 | 0.00 | 0.00 | 0.00 | 58 | 1014.1 |
| 20260906055217 | 23 | 0 | 0.0 | 0.0 | 0.00 | 0.00 | 0.00 | 58 | 1014.1 |
| 20260906054503 | 23 | 99 | 0.0 | 4.8 | 0.00 | 0.00 | 0.00 | 58 | 1014.1 |
| 20260906054003 | 23 | 96 | 1.6 | 4.8 | 0.00 | 0.00 | 0.00 | 58 | 1014.2 |
| 20260906053716 | 23 | 93 | 3.2 | 4.8 | 0.00 | 0.00 | 0.00 | 58 | 1014.1 |
| 20260906053003 | 24 | 108 | 1.6 | 4.8 | 0.00 | 0.00 | 0.00 | 56 | 1014.2 |
| 20260906052503 | 24 | 190 | 4.8 | 14.5 | 0.00 | 0.00 | 0.00 | 55 | 1014.0 |
| 20260906052004 | 24 | 202 | 8.0 | 14.5 | 0.00 | 0.00 | 0.00 | 55 | 1013.9 |
| 20260906051503 | 24 | 208 | 9.7 | 19.3 | 0.00 | 0.00 | 0.00 | 55 | 1013.8 |
| 20260906051003 | 25 | 209 | 9.7 | 19.3 | 0.00 | 0.00 | 0.00 | 54 | 1013.8 |
| 20260906050504 | 25 | 207 | 9.7 | 14.5 | 0.00 | 0.00 | 0.00 | 54 | 1013.7 |
| 20260906050217 | 25 | 207 | 9.7 | 14.5 | 0.00 | 0.00 | 0.00 | 54 | 1013.7 |
| 20260906045503 | 25 | 209 | 12.9 | 22.5 | 0.00 | 0.00 | 0.00 | 53 | 1013.6 |
| 20260906045004 | 25 | 210 | 14.5 | 22.5 | 0.00 | 0.00 | 0.00 | 53 | 1013.6 |
| 20260906044716 | 25 | 209 | 16.1 | 25.7 | 0.00 | 0.00 | 0.00 | 53 | 1013.6 |
| 20260906044003 | 25 | 206 | 16.1 | 25.7 | 0.00 | 0.00 | 0.00 | 53 | 1013.7 |
| 20260906043717 | 25 | 206 | 14.5 | 24.1 | 0.00 | 0.00 | 0.00 | 54 | 1013.8 |
| 20260906043003 | 25 | 208 | 14.5 | 22.5 | 0.00 | 0.00 | 0.00 | 55 | 1013.9 |
| 20260906042503 | 25 | 206 | 12.9 | 20.9 | 0.00 | 0.00 | 0.00 | 55 | 1014.0 |
| 20260906042004 | 25 | 206 | 12.9 | 19.3 | 0.00 | 0.00 | 0.00 | 55 | 1014.1 |
| 20260906041503 | 25 | 212 | 11.3 | 19.3 | 0.00 | 0.00 | 0.00 | 55 | 1014.0 |
| 20260906041003 | 25 | 215 | 11.3 | 19.3 | 0.00 | 0.00 | 0.00 | 54 | 1013.9 |
| 20260906040715 | 25 | 217 | 9.7 | 16.1 | 0.00 | 0.00 | 0.00 | 54 | 1013.9 |
| 20260906040004 | 25 | 206 | 9.7 | 17.7 | 0.00 | 0.00 | 0.00 | 54 | 1014.1 |
| 20260906035503 | 25 | 199 | 9.7 | 17.7 | 0.00 | 0.00 | 0.00 | 53 | 1014.1 |
| 20260906035003 | 25 | 193 | 6.4 | 14.5 | 0.00 | 0.00 | 0.00 | 53 | 1014.3 |
| 20260906034504 | 25 | 188 | 4.8 | 11.3 | 0.00 | 0.00 | 0.00 | 52 | 1014.3 |
| 20260906034003 | 25 | 199 | 4.8 | 11.3 | 0.00 | 0.00 | 0.00 | 51 | 1014.1 |
| 20260906033503 | 25 | 207 | 3.2 | 9.7 | 0.00 | 0.00 | 0.00 | 50 | 1014.1 |
| 20260906033004 | 25 | 193 | 0.0 | 8.0 | 0.00 | 0.00 | 0.00 | 50 | 1014.1 |
| 20260906032504 | 26 | 125 | 0.0 | 3.2 | 0.00 | 0.00 | 0.00 | 50 | 1014.1 |
| 20260906032003 | 26 | 63 | 1.6 | 6.4 | 0.00 | 0.00 | 0.00 | 50 | 1014.0 |
| 20260906031504 | 26 | 43 | 3.2 | 6.4 | 0.00 | 0.00 | 0.00 | 50 | 1014.0 |
| 20260906031217 | 25 | 48 | 4.8 | 8.0 | 0.00 | 0.00 | 0.00 | 51 | 1014.0 |
| 20260906030503 | 25 | 60 | 6.4 | 11.3 | 0.00 | 0.00 | 0.00 | 52 | 1014.0 |
| 20260906030004 | 26 | 98 | 4.8 | 9.7 | 0.00 | 0.00 | 0.00 | 52 | 1013.8 |
| 20260906025716 | 26 | 178 | 4.8 | 9.7 | 0.00 | 0.00 | 0.00 | 51 | 1013.8 |
| 20260906025003 | 26 | 209 | 8.0 | 16.1 | 0.00 | 0.00 | 0.00 | 51 | 1013.4 |
| 20260906024504 | 26 | 211 | 11.3 | 17.7 | 0.00 | 0.00 | 0.00 | 50 | 1013.2 |
| 20260906024215 | 26 | 210 | 11.3 | 17.7 | 0.00 | 0.00 | 0.00 | 50 | 1013.1 |
| 20260906023713 | 26 | 207 | 11.3 | 19.3 | 0.00 | 0.00 | 0.00 | 49 | 1012.9 |
| 20260906023004 | 26 | 200 | 9.7 | 14.5 | 0.00 | 0.00 | 0.00 | 48 | 1012.8 |
| 20260906022714 | 26 | 199 | 9.7 | 17.7 | 0.00 | 0.00 | 0.00 | 48 | 1012.8 |
| 20260906022003 | 27 | 204 | 12.9 | 20.9 | 0.00 | 0.00 | 0.00 | 47 | 1012.5 |
| 20260906021504 | 27 | 205 | 12.9 | 20.9 | 0.00 | 0.00 | 0.00 | 46 | 1012.4 |
| 20260906021003 | 27 | 202 | 11.3 | 20.9 | 0.00 | 0.00 | 0.00 | 46 | 1012.5 |
| 20260906020503 | 27 | 199 | 9.7 | 16.1 | 0.00 | 0.00 | 0.00 | 45 | 1012.4 |
| 20260906020004 | 27 | 195 | 6.4 | 14.5 | 0.00 | 0.00 | 0.00 | 44 | 1012.4 |
| 20260906015717 | 27 | 194 | 6.4 | 16.1 | 0.00 | 0.00 | 0.00 | 44 | 1012.3 |
| 20260906015004 | 27 | 200 | 9.7 | 16.1 | 0.00 | 0.00 | 0.00 | 44 | 1012.2 |
| 20260906014713 | 27 | 200 | 8.0 | 14.5 | 0.00 | 0.00 | 0.00 | 44 | 1012.1 |
| 20260906014003 | 27 | 198 | 8.0 | 14.5 | 0.00 | 0.00 | 0.00 | 45 | 1012.2 |
| 20260906013504 | 27 | 198 | 8.0 | 14.5 | 0.00 | 0.00 | 0.00 | 45 | 1012.1 |
| 20260906013003 | 27 | 197 | 8.0 | 14.5 | 0.00 | 0.00 | 0.00 | 45 | 1012.0 |
| 20260906012504 | 28 | 193 | 8.0 | 12.9 | 0.00 | 0.00 | 0.00 | 44 | 1012.0 |
| 20260906012003 | 28 | 187 | 8.0 | 16.1 | 0.00 | 0.00 | 0.00 | 44 | 1011.9 |
| 20260906011503 | 28 | 170 | 6.4 | 16.1 | 0.00 | 0.00 | 0.00 | 43 | 1012.0 |
| 20260906011003 | 28 | 142 | 6.4 | 16.1 | 0.00 | 0.00 | 0.00 | 42 | 1012.1 |
| 20260906010503 | 29 | 150 | 8.0 | 16.1 | 0.00 | 0.00 | 0.00 | 41 | 1011.9 |
| 20260906010003 | 29 | 148 | 6.4 | 14.5 | 0.00 | 0.00 | 0.00 | 40 | 1011.9 |
| 20260906005712 | 30 | 143 | 6.4 | 14.5 | 0.00 | 0.00 | 0.00 | 40 | 1012.0 |
| 20260906005004 | 30 | 159 | 8.0 | 17.7 | 0.00 | 0.00 | 0.00 | 39 | 1012.0 |
| 20260906004503 | 30 | 170 | 8.0 | 16.1 | 0.00 | 0.00 | 0.00 | 39 | 1012.0 |
| 20260906004003 | 30 | 167 | 9.7 | 20.9 | 0.00 | 0.00 | 0.00 | 39 | 1012.0 |
| 20260906003503 | 30 | 170 | 9.7 | 20.9 | 0.00 | 0.00 | 0.00 | 39 | 1012.1 |
| 20260906003003 | 30 | 164 | 9.7 | 25.7 | 0.00 | 0.00 | 0.00 | 39 | 1012.0 |
| 20260906002504 | 30 | 165 | 11.3 | 29.0 | 0.00 | 0.00 | 0.00 | 40 | 1012.1 |
| 20260906002003 | 30 | 170 | 12.9 | 29.0 | 0.00 | 0.00 | 0.00 | 40 | 1012.1 |
| 20260906001503 | 30 | 161 | 14.5 | 30.6 | 0.00 | 0.00 | 0.00 | 39 | 1012.2 |
| 20260906001004 | 30 | 149 | 16.1 | 30.6 | 0.00 | 0.00 | 0.00 | 41 | 1012.2 |
| 20260906000504 | 30 | 141 | 14.5 | 33.8 | 0.00 | 0.00 | 0.00 | 41 | 1012.2 |
| 20260906000003 | 31 | 151 | 17.7 | 37.0 | 0.00 | 0.00 | 0.00 | 40 | 1012.0 |
| 20260905235503 | 31 | 156 | 16.1 | 37.0 | 0.00 | 0.00 | 0.00 | 40 | 1012.1 |
| 20260905235003 | 32 | 141 | 14.5 | 33.8 | 0.00 | 0.00 | 0.00 | 39 | 1012.1 |
| 20260905234504 | 32 | 133 | 11.3 | 29.0 | 0.00 | 0.00 | 0.00 | 37 | 1011.9 |
| 20260905234217 | 33 | 135 | 8.0 | 29.0 | 0.00 | 0.00 | 0.00 | 35 | 1011.8 |
| 20260905233503 | 35 | 128 | 1.6 | 4.8 | 0.00 | 0.00 | 0.00 | 29 | 1011.4 |
| 20260905233003 | 35 | 125 | 1.6 | 4.8 | 0.00 | 0.00 | 0.00 | 29 | 1011.4 |
| 20260905232504 | 35 | 122 | 1.6 | 4.8 | 0.00 | 0.00 | 0.00 | 27 | 1011.4 |
| 20260905232003 | 35 | 122 | 0.0 | 3.2 | 0.00 | 0.00 | 0.00 | 27 | 1011.5 |
| 20260905231717 | 35 | 122 | 0.0 | 3.2 | 0.00 | 0.00 | 0.00 | 27 | 1011.4 |
| 20260905231004 | 35 | 123 | 1.6 | 4.8 | 0.00 | 0.00 | 0.00 | 28 | 1011.2 |
| 20260905230503 | 35 | 128 | 1.6 | 4.8 | 0.00 | 0.00 | 0.00 | 29 | 1011.2 |
| 20260905230003 | 35 | 130 | 1.6 | 4.8 | 0.00 | 0.00 | 0.00 | 26 | 1011.3 |
| 20260905225714 | 35 | 133 | 0.0 | 3.2 | 0.00 | 0.00 | 0.00 | 27 | 1011.2 |
| 20260905225003 | 35 | 133 | 0.0 | 4.8 | 0.00 | 0.00 | 0.00 | 25 | 1011.4 |
| 20260905224504 | 35 | 108 | 3.2 | 6.4 | 0.00 | 0.00 | 0.00 | 25 | 1011.5 |
| 20260905224004 | 35 | 100 | 3.2 | 6.4 | 0.00 | 0.00 | 0.00 | 28 | 1011.4 |
| 20260905223503 | 36 | 103 | 1.6 | 6.4 | 0.00 | 0.00 | 0.00 | 28 | 1011.5 |
| 20260905223003 | 36 | 120 | 1.6 | 6.4 | 0.00 | 0.00 | 0.00 | 25 | 1011.5 |
| 20260905222503 | 36 | 154 | 1.6 | 4.8 | 0.00 | 0.00 | 0.00 | 25 | 1011.5 |
| 20260905222214 | 36 | 157 | 1.6 | 4.8 | 0.00 | 0.00 | 0.00 | 24 | 1011.4 |
| 20260905221718 | 36 | 150 | 0.0 | 3.2 | 0.00 | 0.00 | 0.00 | 24 | 1011.4 |
| 20260905221004 | 36 | 213 | 1.6 | 4.8 | 0.00 | 0.00 | 0.00 | 24 | 1011.5 |
| 20260905220503 | 36 | 215 | 1.6 | 4.8 | 0.00 | 0.00 | 0.00 | 24 | 1011.6 |
| 20260905220003 | 36 | 201 | 1.6 | 6.4 | 0.00 | 0.00 | 0.00 | 23 | 1011.6 |
| 20260905215504 | 36 | 165 | 1.6 | 6.4 | 0.00 | 0.00 | 0.00 | 23 | 1011.7 |
| 20260905215003 | 36 | 116 | 1.6 | 6.4 | 0.00 | 0.00 | 0.00 | 24 | 1011.7 |
| 20260905214504 | 36 | 128 | 1.6 | 6.4 | 0.00 | 0.00 | 0.00 | 24 | 1011.7 |
| 20260905214004 | 36 | 132 | 3.2 | 8.0 | 0.00 | 0.00 | 0.00 | 24 | 1011.8 |
| 20260905213503 | 36 | 127 | 4.8 | 12.9 | 0.00 | 0.00 | 0.00 | 25 | 1011.9 |
| 20260905213004 | 36 | 121 | 3.2 | 12.9 | 0.00 | 0.00 | 0.00 | 25 | 1011.9 |
| 20260905212504 | 36 | 141 | 3.2 | 6.4 | 0.00 | 0.00 | 0.00 | 24 | 1011.8 |
| 20260905212003 | 36 | 185 | 3.2 | 9.7 | 0.00 | 0.00 | 0.00 | 24 | 1011.9 |
| 20260905211713 | 36 | 163 | 4.8 | 14.5 | 0.00 | 0.00 | 0.00 | 23 | 1011.9 |
| 20260905211216 | 36 | 92 | 4.8 | 14.5 | 0.00 | 0.00 | 0.00 | 24 | 1011.9 |